STARLINK-1828 (46725 NORAD) Tracking and Keplerian Element Data

This shows tracking and keplerian element data for the satellite.

Feedback or suggestion? Click here.




ElementValue
Catalog46725
NameSTARLINK-1828
Epoch Orbit609
Epoch Day328.16667824
Epoch Year2020
RAAN294.3483
Inclination53.0566
Eccentricity0.0001189
Argument of Perigee83.8311
Mean Anonmoly190.6474
Mean Motion15.45876861
Decay Rate-0.01076474
L11 46725U 20073BH 20328.16667824 -.01076474 00000-0 -24083-1 0 9990
L22 46725 53.0566 294.3483 0001189 83.8311 190.6474 15.45876861 6094

Live tracking and technical data element details for STARLINK-1828 (NORAD 46725). STARLINK-1828 can be tracked NOW for your location showing map with azimuth and elevation plus other details from your city location.

Track the satellite on the map from your city or location and see movement details for azimuth, elevation, latitude, longitude, range, height, and movement on the map or in text.







IsCatalogInMostPopularTable: catalog: 46725, numindb: 10
Update: records affected: 1



GetName: 46725 STARLINK-1828

Hit Count: updated at: Tue, 24 Nov 2020 11:47:55 GMT